[Date Prev][Date Next][Thread Prev][Thread Next] - [Date Index][Thread Index][Author Index]
MIR Keps 3-9 UTC
- Subject: MIR Keps 3-9 UTC
- From: "Dr. Larsen" <doc@xxxxxxxxxxx>
- Date: Mon, 9 Mar 1998 10:52:45 -0800
These "should" be good keps to wrk with for tommarows APRS Exp
MIR
1 16609U 86017A 98068.45802061 .00007073 00000-0 83545-4 0 3171
2 16609 51.6561 190.8774 0005430 101.5870 258.5674 15.62557379688456
Satellite: Mir
Catalog number: 16609
Epoch time: 98068.45802061
Element set: 317
Inclination: 51.6561 deg
RA of node: 190.8774 deg Semi-major axis: 3649.2264 n.mi.
Eccentricity: .0005430 Apogee altitude: 207.2738 n.mi.
Arg of perigee: 101.5870 deg Perigee altitude: 203.3108 n.mi.
Mean anomaly: 258.5674 deg Altitude decay: .0110
n.mi./day
Mean motion: 15.62557379 rev/day Apsidal rotation: 3.7551 deg/day
Decay rate: 7.073e-05 rev/day^2 Nodal regression: -5.0405 deg/day
Epoch rev: 68845 Nodal period: 92.0951 min
Checksum: 327
Tnx to Gil Carman for these [ WA5NOM ]
AMSAT Home